[[{"header":{"parameterUnit":"m.s-1","parameterCategory":1,"la1":30.2991,"la2":30.254,"lo1":-89.0895,"lo2":-89.0444,"dy":0.0017,"dx":0.0017,"nx":28,"ny":28,"refTime":"2024-05-25T03:00:00:Z","depth":0,"parameterNumber":2,"parameterNumberName":"U-component_of_WINDS"},"data":[0,0,0,0,0,0,0,0,0,0,0,0,0,0,0,0,0,0,0,0,0,0,0,0,0,0,0,0,0,0,0,0,0,0,0,0,0,0,0,0,0,0,0,0,0,0,0,0,0,0,0,0,0,0,0,0,0,0,-1.0558,-1.0559,0,-1.0643,-1.0644,-1.0645,-1.0711,-1.0711,-1.0712,-1.0713,-1.0799,-1.0801,-1.0802,0,0,0,0,0,0,0,0,0,0,0,0,0,-1.0453,-1.0455,-1.0558,-1.0559,-1.056,-1.0643,-1.0644,-1.0646,-1.0711,-1.0711,-1.0712,-1.0713,-1.0798,-1.08,-1.0802,0,0,0,0,0,0,0,0,0,0,0,0,0,-1.0515,-1.0455,-1.0558,-1.0603,-1.0608,-1.0643,-1.0644,-1.0646,-1.071,-1.0711,-1.0712,-1.0713,-1.0798,-1.08,-1.0803,-1.08,0,0,-1.0811,-1.0812,0,0,0,0,0,0,0,0,-1.0511,-1.0518,-1.0595,-1.06,-1.0605,-1.0667,-1.0639,-1.0698,-1.071,-1.0671,-1.0713,-1.0714,-1.0754,-1.0761,-1.0774,-1.0804,-1.0808,-1.0811,-1.0812,-1.0814,-1.0814,0,0,0,0,0,0,0,-1.0507,-1.0515,-1.0592,-1.0596,-1.0602,-1.0619,-1.0629,-1.0651,-1.0707,-1.0675,-1.068,-1.0689,-1.0757,-1.0772,-1.0777,-1.0809,-1.0811,-1.0813,-1.0815,-1.0816,-1.0843,-1.0842,0,0,0,0,0,0,-1.0496,-1.0511,-1.0589,-1.0594,-1.056,-1.062,-1.0631,-1.0646,-1.0707,-1.0717,-1.0688,-1.0692,-1.0767,-1.0774,-1.078,-1.0782,-1.0813,-1.0816,-1.0817,-1.0844,-1.0843,-1.0842,0,0,0,0,0,0,-1.0493,-1.0502,-1.0586,-1.0554,-1.0566,-1.0621,-1.0638,-1.0648,-1.0662,-1.0717,-1.0727,-1.0692,-1.0768,-1.0777,-1.0795,-1.0786,-1.0817,-1.0819,-1.0845,-1.0844,-1.0842,-1.0785,0,0,0,0,0,0,-1.049,-1.0501,-1.05,-1.0554,-1.0568,-1.0599,-1.0637,-1.0649,-1.0667,-1.0672,-1.0723,-1.0733,-1.0769,-1.0791,-1.0798,-1.079,-1.0821,-1.0846,-1.0844,-1.0843,-1.0788,-1.0782,-1.0777,0,0,0,0,0,-1.0486,-1.0479,-1.0499,-1.0508,-1.0568,-1.0598,-1.0606,-1.0648,-1.0666,-1.0665,-1.0701,-1.0731,-1.0786,-1.0792,-1.08,-1.0793,-1.0847,-1.0845,-1.0843,-1.079,-1.0783,-1.0777,0,0,0,0,0,0,-1.0422,-1.0487,-1.051,-1.0521,-1.0553,-1.0609,-1.061,-1.0639,-1.0667,-1.0671,-1.0722,-1.0733,-1.0746,-1.0772,-1.0778,-1.0795,-1.082,-1.082,-1.0777,-1.0771,-1.0766,-1.0759,-1.0824,0,0,0,0,0,-1.0409,-1.0428,-1.0484,-1.0489,-1.0504,-1.0554,-1.0569,-1.0599,-1.0635,-1.0649,-1.0685,-1.0719,-1.0744,-1.0759,-1.0785,-1.0792,-1.0805,-1.0792,-1.0786,-1.0781,-1.078,-1.0787,-1.0782,-1.0836,-1.0836,-1.0836,0,0,-1.0383,-1.0421,-1.043,-1.0477,-1.0506,-1.0525,-1.0565,-1.0583,-1.0598,-1.0651,-1.0671,-1.0699,-1.0741,-1.0754,-1.0761,-1.0775,-1.0769,-1.0779,-1.0775,-1.0776,-1.0785,-1.078,-1.0775,-1.0835,-1.0835,-1.0835,0,0,-1.0344,-1.0375,-1.0382,-1.0411,-1.0455,-1.0488,-1.049,-1.0542,-1.0563,-1.0584,-1.0625,-1.0644,-1.0686,-1.0714,-1.0733,-1.0708,-1.0738,-1.0715,-1.0686,-1.0692,-1.0688,-1.0684,-1.0676,-1.0672,-1.0714,-1.0714,-1.0714,0,-1.0306,-1.0336,-1.0383,-1.0399,-1.0419,-1.0469,-1.0478,-1.0503,-1.0553,-1.0566,-1.0581,-1.0636,-1.0667,-1.0688,-1.0682,-1.0696,-1.0701,-1.0709,-1.0685,-1.0682,-1.0679,-1.0672,-1.0668,-1.0711,-1.0712,-1.0712,-1.0712,0,-1.0287,-1.0307,-1.0308,-1.0356,-1.0376,-1.0388,-1.0437,-1.0453,-1.0482,-1.0514,-1.0536,-1.0575,-1.0611,-1.0618,-1.0646,-1.0644,-1.0651,-1.0675,-1.0701,-1.067,-1.0664,-1.0661,-1.0707,-1.0708,-1.0709,-1.071,0,0,-1.0208,-1.0283,-1.0283,-1.0306,-1.0359,-1.0376,-1.0391,-1.0426,-1.0439,-1.0472,-1.0486,-1.0522,-1.0545,-1.0567,-1.0599,-1.0605,-1.0583,-1.0628,-1.063,-1.0618,-1.0584,-1.0565,-1.0561,-1.0604,-1.0603,-1.0603,-1.058,0,-1.0178,-1.0208,-1.0251,-1.0267,-1.0287,-1.0337,-1.035,-1.0385,-1.0416,-1.0438,-1.0473,-1.0497,-1.0526,-1.054,-1.0547,-1.0584,-1.0577,-1.0586,-1.0618,-1.0618,-1.0605,-1.0558,-1.0538,-1.0514,-1.0578,-1.0578,-1.0578,0,-1.0146,-1.0178,-1.0195,-1.0248,-1.0258,-1.027,-1.0307,-1.0327,-1.0368,-1.039,-1.0416,-1.0452,-1.0471,-1.0496,-1.0524,-1.0529,-1.0545,-1.0565,-1.0566,-1.0569,-1.0595,-1.056,-1.0508,-1.0504,-1.0574,-1.0574,-1.0575,0,-1.0087,-1.0134,-1.0151,-1.0169,-1.0231,-1.0238,-1.0265,-1.0306,-1.0326,-1.0358,-1.0371,-1.0405,-1.0424,-1.045,-1.0494,-1.0508,-1.0517,-1.0545,-1.0537,-1.0536,-1.0535,-1.0535,-1.0484,-1.0546,-1.0546,-1.0547,-1.0547,0,-1.0048,-1.0057,-1.0126,-1.0136,-1.0148,-1.0199,-1.0209,-1.024,-1.0277,-1.0295,-1.0341,-1.0356,-1.0414,-1.0436,-1.0471,-1.049,-1.0498,-1.0517,-1.0525,-1.0512,-1.051,-1.0522,-1.0525,-1.0546,-1.0546,-1.0546,-1.0546,0,-0.9983,-1.003,-1.0052,-1.011,-1.0125,-1.0131,-1.0181,-1.0193,-1.0228,-1.025,-1.0258,-1.0313,-1.0342,-1.039,-1.0432,-1.0456,-1.0468,-1.0483,-1.0454,-1.0459,-1.0448,-1.0448,-1.0404,-1.0401,-1.0464,-1.0464,-1.0463,0,-0.9955,-0.9963,-1.0023,-1.0038,-1.0063,-1.0087,-1.0107,-1.0159,-1.0178,-1.0226,-1.0233,-1.0266,-1.0295,-1.034,-1.0384,-1.0417,-1.0433,-1.0416,-1.0438,-1.0425,-1.0433,-1.0432,-1.0433,-1.041,-1.0409,-1.0408,-1.0407,0,-0.99,-0.9923,-0.995,-0.9986,-1.0009,-1.004,-1.0073,-1.0083,-1.0142,-1.0161,-1.0192,-1.0215,-1.026,-1.0292,-1.0332,-1.036,-1.0393,-1.04,-1.04,-1.0386,-1.0368,-1.0377,-1.0439,-1.04,-1.0401,-1.0402,-1.0402,-1.0402,-0.9853,-0.9863,-0.9907,-0.9936,-0.9967,-0.9997,-1.0012,-1.0049,-1.0076,-1.0117,-1.0146,-1.0175,-1.0218,-1.0275,-1.0301,-1.0325,-1.034,-1.0339,-1.0339,-1.0338,-1.0333,-1.0365,-1.0333,-1.0333,-1.0334,-1.0334,-1.0334,0,-0.98,-0.9831,-0.9858,-0.9903,-0.9927,-0.9957,-0.9996,-1.0013,-1.0039,-1.0076,-1.0104,-1.014,-1.0173,-1.022,-1.0256,-1.0266,-1.0283,-1.0274,-1.0273,-1.0279,-1.0318,-1.0315,-1.026,-1.026,-1.026,-1.026,-1.026,-1.026,-0.9775,-0.9794,-0.9823,-0.9858,-0.9889,-0.9919,-0.9938,-0.9967,-0.9997,-1.0035,-1.0063,-1.0094,-1.0135,-1.0175,-1.0207,-1.022,-1.0231,-1.0217,-1.0235,-1.027,-1.0277,-1.0283,-1.028,-1.0219,-1.0219,-1.0195,-1.0194,-1.0194]},{"header":{"parameterUnit":"m.s-1","parameterCategory":1,"la1":30.2991,"la2":30.254,"lo1":-89.0895,"lo2":-89.0444,"dy":0.0017,"dx":0.0017,"nx":28,"ny":28,"refTime":"2024-05-25T03:00:00:Z","depth":0,"parameterNumber":3,"parameterNumberName":"V-component_of_WINDS"},"data":[0,0,0,0,0,0,0,0,0,0,0,0,0,0,0,0,0,0,0,0,0,0,0,0,0,0,0,0,0,0,0,0,0,0,0,0,0,0,0,0,0,0,0,0,0,0,0,0,0,0,0,0,0,0,0,0,0,0,6.6502,6.6502,0,6.6553,6.6553,6.6554,6.6501,6.6499,6.6497,6.6495,6.6542,6.6545,6.6548,0,0,0,0,0,0,0,0,0,0,0,0,0,6.6353,6.6356,6.6502,6.6502,6.6503,6.6553,6.6553,6.6554,6.6501,6.6499,6.6496,6.6494,6.6541,6.6545,6.6549,0,0,0,0,0,0,0,0,0,0,0,0,0,6.6412,6.6357,6.6502,6.6483,6.6482,6.6553,6.6553,6.6554,6.6502,6.6499,6.6496,6.6493,6.654,6.6544,6.6549,6.6639,0,0,6.6563,6.6565,0,0,0,0,0,0,0,0,6.6409,6.6418,6.6485,6.6484,6.6483,6.6518,6.6518,6.6583,6.6503,6.6494,6.6495,6.6491,6.6536,6.6541,6.6557,6.6641,6.6643,6.6564,6.6567,6.6569,6.657,0,0,0,0,0,0,0,6.6405,6.6415,6.6522,6.6486,6.6485,6.647,6.6475,6.653,6.6531,6.6495,6.6491,6.6498,6.6535,6.6553,6.6558,6.6644,6.6564,6.6568,6.6571,6.6573,6.6804,6.6808,0,0,0,0,0,0,6.6404,6.6412,6.652,6.6523,6.6438,6.6475,6.6481,6.651,6.6531,6.6531,6.6501,6.6495,6.6546,6.6552,6.6559,6.6666,6.6569,6.6573,6.6576,6.6801,6.6805,6.6809,0,0,0,0,0,0,6.6401,6.6414,6.6518,6.6467,6.6479,6.6481,6.6514,6.6512,6.653,6.6535,6.6535,6.6519,6.6544,6.6552,6.662,6.6667,6.6575,6.658,6.6797,6.6802,6.6807,6.688,0,0,0,0,0,0,6.6397,6.6413,6.6449,6.6468,6.6482,6.658,6.6517,6.6515,6.6539,6.6532,6.6552,6.6552,6.6542,6.6613,6.6625,6.6671,6.6583,6.6793,6.6799,6.6805,6.6873,6.6887,6.6898,0,0,0,0,0,6.6392,6.6466,6.6451,6.6464,6.6527,6.6583,6.659,6.6579,6.6543,6.6578,6.6581,6.6552,6.666,6.6621,6.6633,6.6682,6.679,6.6798,6.6805,6.6868,6.6884,6.6898,0,0,0,0,0,0,6.645,6.6468,6.6452,6.6535,6.6558,6.6574,6.6617,6.6596,6.6629,6.6621,6.6603,6.6608,6.668,6.6687,6.6643,6.677,6.6719,6.6729,6.6762,6.6778,6.679,6.6787,6.6587,0,0,0,0,0,6.6473,6.6519,6.6532,6.6604,6.6617,6.6616,6.6639,6.6628,6.665,6.6659,6.6668,6.6689,6.6727,6.6753,6.6789,6.6874,6.6877,6.6914,6.6927,6.6937,6.6946,6.6991,6.7007,6.6833,6.6833,6.6833,0,0,6.6521,6.6536,6.6566,6.6616,6.6633,6.6679,6.6624,6.6675,6.6708,6.6666,6.6731,6.6738,6.676,6.6837,6.6871,6.6846,6.6994,6.6946,6.6955,6.6958,6.7,6.7016,6.7031,6.6838,6.6837,6.6837,0,0,6.6631,6.6648,6.671,6.6728,6.6754,6.6753,6.6768,6.6787,6.679,6.6855,6.6825,6.6863,6.6931,6.6948,6.6965,6.7082,6.7056,6.7094,6.7159,6.7203,6.7217,6.7229,6.7269,6.7284,6.7103,6.7103,6.7103,0,6.6685,6.6756,6.6744,6.6797,6.682,6.6786,6.6848,6.6865,6.6901,6.6917,6.6888,6.6972,6.6984,6.7064,6.7093,6.7108,6.7124,6.7091,6.7216,6.7228,6.7239,6.7277,6.7293,6.7107,6.7107,6.7107,6.7106,0,6.6821,6.687,6.6917,6.6955,6.6982,6.704,6.7035,6.7064,6.7051,6.7052,6.7118,6.7132,6.717,6.7188,6.7175,6.7266,6.725,6.7219,6.7167,6.726,6.7296,6.7311,6.7114,6.7112,6.7111,6.711,0,0,6.6969,6.7,6.7018,6.7034,6.7061,6.7097,6.7152,6.7191,6.7216,6.7242,6.7287,6.7345,6.7317,6.7337,6.7325,6.7364,6.7454,6.7328,6.7328,6.735,6.7555,6.7577,6.7595,6.7438,6.744,6.7443,6.7553,0,6.7079,6.7177,6.7168,6.726,6.7305,6.7273,6.7321,6.7342,6.7344,6.7381,6.7382,6.7424,6.7384,6.7396,6.7433,6.7436,6.7495,6.7428,6.7477,6.7479,6.7472,6.7614,6.7638,6.7741,6.7567,6.7569,6.7571,0,6.7221,6.7254,6.7351,6.7371,6.7389,6.7433,6.7467,6.7503,6.7525,6.7524,6.7547,6.7529,6.7582,6.753,6.7603,6.7557,6.7577,6.7582,6.7585,6.7589,6.753,6.762,6.7774,6.7789,6.7593,6.7591,6.759,0,6.7318,6.7387,6.7454,6.7469,6.7494,6.7525,6.7536,6.7556,6.7579,6.7609,6.7624,6.7659,6.7678,6.7705,6.7696,6.7659,6.777,6.7718,6.777,6.777,6.7794,6.7793,6.7952,6.7808,6.7808,6.7808,6.7807,0,6.7442,6.7502,6.7498,6.7539,6.7605,6.7593,6.7658,6.7666,6.7683,6.7724,6.7698,6.7736,6.7722,6.7759,6.7752,6.7813,6.7822,6.7822,6.7819,6.7824,6.7824,6.7836,6.7828,6.7812,6.7811,6.781,6.7809,0,6.7561,6.7561,6.7632,6.765,6.7656,6.7704,6.7719,6.7756,6.7757,6.7809,6.782,6.7821,6.7863,6.7857,6.7903,6.7899,6.7974,6.7963,6.7968,6.7965,6.8017,6.8012,6.8189,6.8212,6.8054,6.8056,6.8057,0,6.764,6.7686,6.771,6.7736,6.7751,6.7793,6.7818,6.7807,6.7834,6.7863,6.7897,6.7937,6.7968,6.8037,6.804,6.8076,6.8065,6.8124,6.8069,6.8073,6.8065,6.8062,6.8066,6.8135,6.8137,6.8138,6.8139,0,6.778,6.7777,6.7815,6.7853,6.7883,6.7912,6.7938,6.796,6.7952,6.7983,6.8027,6.8051,6.81,6.8139,6.8172,6.8182,6.8159,6.8157,6.8171,6.8175,6.8176,6.8176,6.7996,6.8153,6.8151,6.815,6.815,6.8149,6.7881,6.792,6.7943,6.7986,6.8004,6.8029,6.8066,6.8072,6.8109,6.8148,6.8139,6.8188,6.8208,6.8251,6.8264,6.8301,6.8279,6.8299,6.8304,6.8309,6.8315,6.8171,6.8307,6.8307,6.8306,6.8306,6.8306,0,6.8018,6.8032,6.8071,6.8109,6.8142,6.812,6.8147,6.8176,6.822,6.8241,6.8274,6.8323,6.8362,6.8369,6.8405,6.8433,6.8424,6.8443,6.844,6.8443,6.8333,6.8317,6.845,6.845,6.845,6.845,6.845,6.845,6.8093,6.8159,6.8159,6.8233,6.8245,6.8295,6.8312,6.8334,6.8351,6.8409,6.8442,6.8446,6.8462,6.8499,6.8533,6.8533,6.8547,6.8571,6.8568,6.8465,6.8451,6.8437,6.8422,6.8574,6.8575,6.8674,6.8675,6.8676]}]]